OK1FET-5 Weather Reports


Display with metric or nautical units.
time (UTC)temp
F
wind
direction
speed
MPH
gust
MPH
rain 1hr
in
rain 24hr
in
rain mn
in
humidity
%
barometer
mb
20210309100952 42 135 8.0 0.0 0.00 0.00 0.00 1019.4
20210309100029 42 180 8.0 0.0 0.00 0.00 0.00 1019.4
20210309095625 41 135 4.0 0.0 0.00 0.00 0.00 1019.4
20210309094150 41 128 12.0 0.0 0.00 0.00 0.00 1019.3
20210309093145 42 92 10.0 0.0 0.00 0.00 0.00 1019.4
20210309092805 41 90 7.0 0.0 0.00 0.00 0.00 1019.4
20210309091240 41 135 3.0 0.0 0.00 0.00 0.00 1019.4
20210309090609 41 163 7.0 0.0 0.00 0.00 0.00 1019.5
20210309090158 41 168 5.0 0.0 0.00 0.00 0.00 1019.5
20210309084411 39 90 6.0 0.0 0.00 0.00 0.00 1019.5
20210309083438 39 135 6.0 0.0 0.00 0.00 0.00 1019.6
20210309082918 39 90 6.0 0.0 0.00 0.00 0.00 1019.6
20210309081537 37 90 5.0 0.0 0.00 0.00 0.00 1019.7
20210309080637 37 90 5.0 0.0 0.00 0.00 0.00 1019.7
20210309080110 37 90 6.0 0.0 0.00 0.00 0.00 1019.7
20210309074651 35 135 3.0 0.0 0.00 0.00 0.00 1019.9
20210309073719 35 135 2.0 0.0 0.00 0.00 0.00 1019.8
20210309072920 33 135 5.0 0.0 0.00 0.00 0.00 1019.9
20210309071839 33 90 1.0 0.0 0.00 0.00 0.00 1019.9
20210309070847 32 90 4.0 0.0 0.00 0.00 0.00 1019.8
20210309065856 32 90 2.0 0.0 0.00 0.00 0.00 1019.9
20210309064351 32 90 2.0 0.0 0.00 0.00 0.00 1020.0
20210309063604 30 90 2.0 0.0 0.00 0.00 0.00 1020.0
20210309062759 30 90 2.0 0.0 0.00 0.00 0.00 1020.0
20210309061132 28 90 1.0 0.0 0.00 0.00 0.00 1019.9
20210309060530 28 90 2.0 0.0 0.00 0.00 0.00 1019.9
20210309055951 28 90 3.0 0.0 0.00 0.00 0.00 1020.0
20210309054302 26 90 5.0 0.0 0.00 0.00 0.00 1019.9
20210309053537 26 90 2.0 0.0 0.00 0.00 0.00 1019.9
20210309052933 26 90 2.0 0.0 0.00 0.00 0.00 1019.8
20210309051433 26 90 3.0 0.0 0.00 0.00 0.00 1019.8
20210309050449 26 90 4.0 0.0 0.00 0.00 0.00 1019.9
20210309045951 26 90 5.0 0.0 0.00 0.00 0.00 1019.8
20210309044546 26 90 5.0 0.0 0.00 0.00 0.00 1019.8
20210309043731 28 45 2.0 0.0 0.00 0.00 0.00 1019.7
20210309043129 28 90 3.0 0.0 0.00 0.00 0.00 1019.8
20210309041938 28 90 3.0 0.0 0.00 0.00 0.00 1019.8
20210309040750 28 83 4.0 0.0 0.00 0.00 0.00 1019.8
20210309040049 28 90 4.0 0.0 0.00 0.00 0.00 1019.8
20210309033913 28 90 3.0 0.0 0.00 0.00 0.00 1019.9
20210309033025 28 90 4.0 0.0 0.00 0.00 0.00 1019.8
20210309032134 28 45 2.0 0.0 0.00 0.00 0.00 1019.8
20210309031036 26 66 6.0 0.0 0.00 0.00 0.00 1019.7
20210309030242 26 45 3.0 0.0 0.00 0.00 0.00 1019.8
20210309025809 26 45 4.0 0.0 0.00 0.00 0.00 1019.9
20210309024303 26 45 3.0 0.0 0.00 0.00 0.00 1020.0
20210309023233 26 66 3.0 0.0 0.00 0.00 0.00 1020.0
20210309022901 28 360 0.0 0.0 0.00 0.00 0.00 1020.0
20210309021331 28 90 5.0 0.0 0.00 0.00 0.00 1020.1
20210309020404 28 45 4.0 0.0 0.00 0.00 0.00 1020.1
20210309015734 28 45 3.0 0.0 0.00 0.00 0.00 1020.3
20210309014520 26 360 3.0 0.0 0.00 0.00 0.00 1020.3
20210309013523 26 92 0.0 0.0 0.00 0.00 0.00 1020.5
20210309012902 26 45 0.0 0.0 0.00 0.00 0.00 1020.5
20210309011622 26 360 0.0 0.0 0.00 0.00 0.00 1020.6
20210309010651 26 180 0.0 0.0 0.00 0.00 0.00 1020.8
20210309010225 26 180 0.0 0.0 0.00 0.00 0.00 1020.8
20210309004837 26 180 0.0 0.0 0.00 0.00 0.00 1020.9
20210309003819 26 180 0.0 0.0 0.00 0.00 0.00 1021.0
20210309003055 28 180 0.0 0.0 0.00 0.00 0.00 1020.9
20210309002124 28 90 2.0 0.0 0.00 0.00 0.00 1020.9
20210309001203 28 180 0.0 0.0 0.00 0.00 0.00 1020.9
20210308235441 28 135 0.0 0.0 0.00 0.00 0.00 1020.8
20210308234121 30 135 2.0 0.0 0.00 0.00 0.00 1020.8
20210308233221 28 180 1.0 0.0 0.00 0.00 0.00 1020.9
20210308232755 28 180 0.0 0.0 0.00 0.00 0.00 1020.8
20210308231235 28 180 0.0 0.0 0.00 0.00 0.00 1021.0
20210308230305 28 180 0.0 0.0 0.00 0.00 0.00 1021.0
20210308225420 28 90 2.0 0.0 0.00 0.00 0.00 1021.0
20210308224402 28 90 2.0 0.0 0.00 0.00 0.00 1021.0
20210308223433 30 135 2.0 0.0 0.00 0.00 0.00 1021.0
20210308222912 30 90 2.0 0.0 0.00 0.00 0.00 1021.0
20210308221532 30 45 1.0 0.0 0.00 0.00 0.00 1021.0
20210308220601 32 360 1.0 0.0 0.00 0.00 0.00 1021.0
20210308215812 30 360 2.0 0.0 0.00 0.00 0.00 1021.1
20210308214657 30 360 1.0 0.0 0.00 0.00 0.00 1021.0
20210308213729 30 45 1.0 0.0 0.00 0.00 0.00 1021.0
20210308212852 30 45 2.0 0.0 0.00 0.00 0.00 1021.0
20210308211929 30 360 1.0 0.0 0.00 0.00 0.00 1021.1
20210308210857 32 45 1.0 0.0 0.00 0.00 0.00 1021.1
20210308210037 30 45 2.0 0.0 0.00 0.00 0.00 1021.0
20210308205134 30 45 1.0 0.0 0.00 0.00 0.00 1021.0
20210308204022 30 360 2.0 0.0 0.00 0.00 0.00 1021.1
20210308203054 30 270 1.0 0.0 0.00 0.00 0.00 1021.1
20210308202633 30 45 2.0 0.0 0.00 0.00 0.00 1021.1
20210308201147 30 315 2.0 0.0 0.00 0.00 0.00 1021.1
20210308200219 30 360 3.0 0.0 0.00 0.00 0.00 1021.0
20210308195500 30 315 3.0 0.0 0.00 0.00 0.00 1021.1
20210308194318 30 45 1.0 0.0 0.00 0.00 0.00 1021.0
20210308193340 30 315 1.0 0.0 0.00 0.00 0.00 1021.0
20210308192605 30 360 2.0 0.0 0.00 0.00 0.00 1021.0
20210308191444 30 360 0.0 0.0 0.00 0.00 0.00 1020.9
20210308190515 30 45 1.0 0.0 0.00 0.00 0.00 1020.9
20210308185858 32 315 1.0 0.0 0.00 0.00 0.00 1020.9
20210308184614 30 270 1.0 0.0 0.00 0.00 0.00 1020.9
20210308183534 30 360 1.0 0.0 0.00 0.00 0.00 1020.9
20210308182811 32 45 0.0 0.0 0.00 0.00 0.00 1020.9
20210308181635 32 45 0.0 0.0 0.00 0.00 0.00 1020.8
20210308180705 32 315 1.0 0.0 0.00 0.00 0.00 1020.8
20210308175928 32 315 1.0 0.0 0.00 0.00 0.00 1020.7
20210308174948 32 315 3.0 0.0 0.00 0.00 0.00 1020.8
20210308173831 32 315 1.0 0.0 0.00 0.00 0.00 1020.6
20210308173105 32 315 1.0 0.0 0.00 0.00 0.00 1020.4
20210308172011 32 270 0.0 0.0 0.00 0.00 0.00 1020.3
20210308170958 32 315 1.0 0.0 0.00 0.00 0.00 1020.1
20210308170028 33 360 0.0 0.0 0.00 0.00 0.00 1020.0
20210308165203 33 315 1.0 0.0 0.00 0.00 0.00 1019.9
20210308164126 35 315 1.0 0.0 0.00 0.00 0.00 1019.9
20210308163156 37 360 1.0 0.0 0.00 0.00 0.00 1019.8
20210308162346 37 360 1.0 0.0 0.00 0.00 0.00 1019.7
20210308161255 39 360 3.0 0.0 0.00 0.00 0.00 1019.7
20210308160324 41 315 0.0 0.0 0.00 0.00 0.00 1019.5
20210308155650 41 360 2.0 0.0 0.00 0.00 0.00 1019.6
20210308154436 42 315 1.0 0.0 0.00 0.00 0.00 1019.5
20210308153510 46 45 2.0 0.0 0.00 0.00 0.00 1019.4
20210308152753 48 45 3.0 0.0 0.00 0.00 0.00 1019.4
20210308151600 51 315 3.0 0.0 0.00 0.00 0.00 1019.3
20210308150629 53 40 3.0 0.0 0.00 0.00 0.00 1019.2
20210308145930 53 294 2.0 0.0 0.00 0.00 0.00 1019.2
20210308144756 53 225 0.0 0.0 0.00 0.00 0.00 1019.3
20210308143801 59 321 1.0 0.0 0.00 0.00 0.00 1019.1
20210308142921 62 270 1.0 0.0 0.00 0.00 0.00 1018.9
20210308141950 64 225 2.0 0.0 0.00 0.00 0.00 1019.0
20210308140924 62 315 4.0 0.0 0.00 0.00 0.00 1019.1
20210308140200 60 90 2.0 0.0 0.00 0.00 0.00 1019.2
20210308135748 60 90 2.0 0.0 0.00 0.00 0.00 1019.2
20210308134113 62 317 1.0 0.0 0.00 0.00 0.00 1019.2
20210308133250 60 135 1.0 0.0 0.00 0.00 0.00 1019.2
20210308132747 59 45 2.0 0.0 0.00 0.00 0.00 1019.2
20210308131218 66 360 2.0 0.0 0.00 0.00 0.00 1019.0
20210308130300 66 90 5.0 0.0 0.00 0.00 0.00 1018.9
20210308130033 62 225 2.0 0.0 0.00 0.00 0.00 1019.1
20210308124337 57 45 2.0 0.0 0.00 0.00 0.00 1019.2
20210308123412 66 360 4.0 0.0 0.00 0.00 0.00 1019.1
20210308121542 60 222 3.0 0.0 0.00 0.00 0.00 1019.4
20210308120533 53 45 2.0 0.0 0.00 0.00 0.00 1019.8
20210308120018 59 45 1.0 0.0 0.00 0.00 0.00 1019.6
20210308114702 64 229 4.0 0.0 0.00 0.00 0.00 1019.4
20210308113644 60 260 3.0 0.0 0.00 0.00 0.00 1019.6
20210308113103 66 326 3.0 0.0 0.00 0.00 0.00 1019.6
20210308111858 69 231 3.0 0.0 0.00 0.00 0.00 1019.4
20210308110819 69 315 3.0 0.0 0.00 0.00 0.00 1019.4
20210308110201 66 90 1.0 0.0 0.00 0.00 0.00 1019.5
20210308105511 64 315 3.0 0.0 0.00 0.00 0.00 1019.6
20210308103930 60 360 2.0 0.0 0.00 0.00 0.00 1019.7
20210308103047 59 45 5.0 0.0 0.00 0.00 0.00 1019.7
20210308102424 55 135 5.0 0.0 0.00 0.00 0.00 1019.9